Погода в Сан-Лоренсо

Аргентина     32°44′35″S   60°44′11″W
темп.,
°C
ветер,
м/с
пор.,
м/с
влажн.,
%
обл.,
%
осадки,
мм/ч
давл.,
гПа
погр.,
м
26 января, вт
вт2600:00+28ссв246216 0.2 1003147
03:00+24юз358130 2.5 1003212
06:00+25всв3578100 0.6 1002139
09:00+24с2483100 0.6 1004257
12:00+32ю1248100 0.0 1003869
15:00+34св3434100 0.0 10011826
18:00+30ссз2344100 0.3 1000110
21:00+24всв51073100 0.6 1003399
27 января, ср
ср2700:00+24ссв4676100 0.1 1004191
03:00+23ююз1279100 0.1 1004160
06:00+23ю2380100 0.0 1004146
09:00+27ю1259100 0.0 1006418
12:00+35ююв123399 0.0 10051512
15:00+38в232289 0.0 10022361
18:00+38всв121812 0.0 9992213
21:00+32всв132517 0.0 100081
28 января, чт
чт2800:00+28зсз24350 0.0 100192
03:00+26с35460 0.0 1000124
06:00+24з23540 0.0 1002112
09:00+30ссз23420 0.0 1004310
12:00+36з242959 0.2 10041990
15:00+34ююз553169 0.3 10031806
18:00+29ююв694981 0.9 1001707
21:00+26юв355758 1.1 1001200
29 января, пт
пт2900:00+23в236748 0.8 1003160
03:00+22в247974 5.6 1003156
06:00+22всв2480100 1.3 1003188
09:00+24вюв0272100 1.4 1004258
12:00+27ссв115798 0.1 1003377
15:00+35ссз232949 0.1 10001218
18:00+36зюз12260 0.0 9982195
21:00+31вюв23340 0.0 99969
30 января, сб
сб3000:00+29всв363925 0.0 1000186
03:00+24ю486719 0.9 1001258
06:00+21ююв6138337 1.2 1004566
09:00+22юв7137268 1.8 1008791
12:00+22ююв5981100 2.6 1010674
15:00+23вюв5875100 5.3 1009640
18:00+26ююв566282 0.0 10071052
21:00+23ююв367180 0.0 1009627